Location: Batang Balui
(2.7000°N, 113.7833°E)
Time: 01:43:37
(UTC+00:00)

FO-29 - Pass Details

Date: 10 April 2023
Orbit: 799 x 1322 km, 98.5° (Epoch: 29 May)

Event Time Altitude Azimuth Distance (km) Brightness Sun altitude
Rises 20:39:27 0° 19° (NNE) 3,747 12.9 -25.9°
Reaches altitude 10° 20:42:06 10° 23° (NNE) 2,722 12.2 -25.3°
Maximum altitude 20:48:00 58° 101° (ESE) 1,041 9.9 -23.8°
Drops below altitude 10° 20:53:18 10° 180° (S) 2,458 11.5 -22.5°
Sets 20:55:36 0° 184° (S) 3,356 12.2 -22.0°
